Starlink 31045

operational
NORAD ID: 58541 Int'l Des: 2023-192 Owner: SPXS Country: US Constellation: starlink
LEOCIRCULAR

关于 Starlink 31045

正在加载描述...

实时位置

正在加载3D地球...

即将过境

高度历史

Altitude vs Time

uPlot chart will show altitude changes over time

两行轨道根数

1 58541U 23192L 25351.19671058 -.00000820 00000-0 -15558-4 0 9993
2 58541 53.1597 162.7555 0001306 85.4870 274.6279 15.30190733112269
Epoch: Dec 17, 2025 • Age: 8 hours

当前状态

高度 476.6 km
速度 7.63 km/s
星下点 -3.09°S, 115.58°W
发射日期 Dec 8, 2023
运行时间 2 years
类型 internet

技术详情

分类 Payload
质量 730.00 kg
干质量 700.00 kg
总质量 730.00 kg
长度 0.30 m
直径 4.10 m
跨度 29.00 m
形状 Box + pan
制造商 SPXS
平台类型 Starlink V2M
阶段状态 In Orbit
所有者/国家 SPXS/US

大型星座

Loading constellations...